GW7281 Weather Reports


time (UTC)temp
F
wind
direction
speed
knots
gust
knots
rain 1hr
in
rain 24hr
in
rain mn
in
humidity
%
barometer
mb
20260504081507 48 26 8.7 15.6 0.00 0.00 0.00 52 1015.4
20260504050016 57 47 12.2 19.1 0.00 0.00 0.00 37 1010.2
20260504044531 56 15 7.8 15.6 0.00 0.00 0.00 37 1009.7
20260504043019 57 30 6.1 13.9 0.00 0.00 0.00 36 1009.2
20260504041514 58 28 8.7 12.2 0.00 0.00 0.00 35 1008.9
20260504040013 58 46 7.8 12.2 0.00 0.00 0.00 35 1008.8
20260504034522 59 28 7.8 12.2 0.00 0.00 0.00 35 1008.5
20260504033016 60 41 9.6 15.6 0.00 0.00 0.00 34 1007.9
20260504031515 61 56 11.3 16.5 0.00 0.00 0.00 32 1007.7
20260504030004 62 34 10.4 15.6 0.00 0.00 0.00 29 1007.4
20260504024505 63 40 7.0 10.4 0.00 0.00 0.00 24 1007.3
20260504023004 65 21 2.6 6.1 0.00 0.00 0.00 22 1007.2
20260504021504 67 5 3.5 7.8 0.00 0.00 0.00 21 1007.2
20260504020008 68 360 7.8 11.3 0.00 0.00 0.00 20 1007.2
20260504014507 70 351 6.1 11.3 0.00 0.00 0.00 19 1007.3
20260504013009 72 9 7.8 14.8 0.00 0.00 0.00 18 1007.2
20260504011504 73 11 8.7 13.9 0.00 0.00 0.00 18 1007.3
20260504010009 74 351 9.6 14.8 0.00 0.00 0.00 17 1007.3
20260504004511 74 338 8.7 15.6 0.00 0.00 0.00 17 1007.5
20260504003011 75 326 7.8 11.3 0.00 0.00 0.00 17 1007.7
20260504001511 75 5 9.6 17.4 0.00 0.00 0.00 16 1007.7
20260504000014 75 5 6.1 14.8 0.00 0.00 0.00 16 1007.7
20260503234516 75 341 11.3 14.8 0.00 0.00 0.00 16 1007.7
20260503233017 76 290 9.6 20.0 0.00 0.00 0.00 16 1007.8
20260503231518 75 352 10.4 18.2 0.00 0.00 0.00 16 1007.9
20260503230018 75 280 3.5 11.3 0.00 0.00 0.00 16 1008.1
20260503224519 75 317 13.9 18.2 0.00 0.00 0.00 16 1008.4
20260503223020 74 265 7.0 16.5 0.00 0.00 0.00 16 1008.5
20260503221531 74 304 10.4 19.1 0.00 0.00 0.00 17 1008.8
20260503220024 74 331 5.2 17.4 0.00 0.00 0.00 16 1008.7
20260503214526 74 300 12.2 15.6 0.00 0.00 0.00 17 1008.9
20260503213030 73 266 9.6 16.5 0.00 0.00 0.00 16 1009.3
20260503211522 73 344 10.4 16.5 0.00 0.00 0.00 17 1009.6
20260503210026 72 240 7.8 14.8 0.00 0.00 0.00 16 1009.7
20260503204527 72 263 7.8 13.0 0.00 0.00 0.00 18 1010.0
20260503203023 72 352 9.6 18.2 0.00 0.00 0.00 18 1010.3
20260503201530 72 9 8.7 16.5 0.00 0.00 0.00 17 1010.5
20260503200032 71 308 10.4 19.1 0.00 0.00 0.00 19 1010.6
20260503194510 71 300 12.2 17.4 0.00 0.00 0.00 19 1010.9
20260503193013 71 293 9.6 20.0 0.00 0.00 0.00 18 1011.2
20260503191515 70 264 10.4 20.0 0.00 0.00 0.00 17 1011.3
20260503190022 70 322 13.0 20.0 0.00 0.00 0.00 18 1011.5
20260503184522 71 252 9.6 21.7 0.00 0.00 0.00 19 1011.5
20260503183036 69 273 8.7 14.8 0.00 0.00 0.00 19 1011.7
20260503181528 69 267 9.6 16.5 0.00 0.00 0.00 20 1012.0
20260503180020 69 265 10.4 17.4 0.00 0.00 0.00 21 1012.2
20260503174521 68 309 11.3 16.5 0.00 0.00 0.00 23 1012.4
20260503173040 68 284 8.7 13.0 0.00 0.00 0.00 24 1012.5
20260503171524 66 288 8.7 11.3 0.00 0.00 0.00 29 1012.5